Weather History for Martinsville, VA

Change the Weather History Date:

Tuesday, October 1, 2013

  Actual Average (KGSO) Record (KGSO)
Temperature  
Mean Temperature 65 °F 64 °F  
Max Temperature 82 °F 75 °F 90 °F (1933)
Min Temperature 48 °F 54 °F 35 °F (1924)
Degree Days  
Heating Degree Days 0 3  
Month to date heating degree days 3  
Since 1 July heating degree days 34  
Cooling Degree Days 0 3  
Month to date cooling degree days 3  
Year to date cooling degree days 1450  
Growing Degree Days 15 (Base 50)    
Moisture  
Dew Point 56 °F    
Average Humidity 80    
Maximum Humidity 99    
Minimum Humidity 38    
Precipitation  
Precipitation 0.00 in 0.10 in 4.06 in (1929)
Month to date precipitation 0.10  
Year to date precipitation 33.08  
Sea Level Pressure  
Sea Level Pressure 30.12 in    
Wind  
Wind Speed 1 mph (NNW)    
Max Wind Speed 8 mph    
Max Gust Speed -    
Visibility 7 miles    
Events Fog    
T = Trace of Precipitation, MM = Missing Value Source: NWS Daily Summary

Daily Weather History Graph

Daily Weather History Graph

Search for Another Location

Airport:

Trip Planner

Search our weather history database for the weather conditions in past years. The results will help you decide how hot, cold, wet, or windy it might be!

Date:

Astronomy

Oct. 01, 2013 Rise Set
Actual Time 7:15 AM EDT 7:03 PM EDT
Civil Twilight 6:49 AM EDT 7:28 PM EDT
Nautical Twilight 6:19 AM EDT 7:58 PM EDT
Astronomical Twilight 5:49 AM EDT 8:28 PM EDT
Moon 3:52 AM EDT (10/1) 5:02 PM EDT (10/1)
Length of Visible Light 12h 39m
Length of Day
11h 47m
Waning Crescent, 12% of the Moon is Illuminated
Oct 1
Waning Crescent
Oct 4
New
Oct 11
First Quarter
Oct 18
Full
Oct 26
Last Quarter

Hourly Weather History & Observations

Time (EDT) Temp. Heat Index Dew Point Humidity Pressure Visibility Wind Dir Wind Speed Gust Speed Precip Events Conditions
12:15 AM 56.8 °F - 55.9 °F 97% 30.10 in 7.0 mi Calm Calm - N/A   Clear
12:35 AM 57.0 °F - 56.3 °F 97% 30.11 in 1.8 mi Calm Calm - N/A   Mist
12:55 AM 56.1 °F - 55.6 °F 98% 30.11 in 4.0 mi Calm Calm - N/A   Clear
1:15 AM 54.7 °F - 53.8 °F 97% 30.10 in 2.5 mi Calm Calm - N/A   Clear
1:35 AM 54.5 °F - 53.6 °F 97% 30.10 in 4.0 mi Calm Calm - N/A   Clear
1:55 AM 53.6 °F - 52.7 °F 97% 30.11 in 2.5 mi Calm Calm - N/A   Clear
2:15 AM 53.2 °F - 52.5 °F 97% 30.11 in 4.0 mi Calm Calm - N/A   Clear
2:35 AM 53.1 °F - 52.7 °F 99% 30.11 in 4.0 mi Calm Calm - N/A   Clear
2:55 AM 52.5 °F - 52.0 °F 98% 30.11 in 7.0 mi Calm Calm - N/A   Scattered Clouds
3:15 AM 52.7 °F - 52.2 °F 98% 30.11 in 4.0 mi Calm Calm - N/A   Mostly Cloudy
3:35 AM 52.0 °F - 51.3 °F 97% 30.10 in 5.0 mi Calm Calm - N/A   Scattered Clouds
3:55 AM 52.2 °F - 51.8 °F 99% 30.10 in 0.5 mi Calm Calm - N/A Fog Fog
4:15 AM 50.9 °F - 50.4 °F 98% 30.10 in 2.5 mi Calm Calm - N/A   Mostly Cloudy
4:35 AM 50.9 °F - 50.2 °F 97% 30.10 in 3.0 mi Calm Calm - N/A   Mostly Cloudy
4:55 AM 50.5 °F - 50.0 °F 98% 30.11 in 0.8 mi Calm Calm - N/A   Overcast
5:15 AM 51.3 °F - 50.7 °F 98% 30.11 in 2.0 mi Calm Calm - N/A   Mostly Cloudy
5:35 AM 50.2 °F - 49.8 °F 99% 30.12 in 5.0 mi Calm Calm - N/A   Scattered Clouds
5:55 AM 49.5 °F - 48.9 °F 98% 30.12 in 5.0 mi Calm Calm - N/A   Scattered Clouds
6:15 AM 49.3 °F - 48.6 °F 97% 30.12 in 3.0 mi Calm Calm - N/A   Mostly Cloudy
6:35 AM 49.3 °F - 48.7 °F 98% 30.13 in 7.0 mi Calm Calm - N/A   Mostly Cloudy
6:55 AM 49.3 °F - 48.7 °F 98% 30.13 in 5.0 mi Calm Calm - N/A   Scattered Clouds
7:15 AM 49.1 °F - 48.4 °F 97% 30.14 in 3.0 mi Calm Calm - N/A   Scattered Clouds
7:35 AM 48.7 °F - 48.2 °F 98% 30.14 in 3.0 mi Calm Calm - N/A   Mostly Cloudy
7:55 AM 50.2 °F - 49.6 °F 98% 30.15 in 5.0 mi Calm Calm - N/A   Mostly Cloudy
8:15 AM 52.2 °F - 51.8 °F 99% 30.15 in 10.0 mi Calm Calm - N/A   Clear
8:35 AM 54.5 °F - 52.9 °F 94% 30.15 in 10.0 mi Calm Calm - N/A   Clear
8:55 AM 57.2 °F - 55.0 °F 92% 30.16 in 10.0 mi Calm Calm - N/A   Clear
9:15 AM 60.3 °F - 57.2 °F 90% 30.17 in 10.0 mi Calm Calm - N/A   Clear
9:35 AM 62.6 °F - 57.4 °F 83% 30.17 in 10.0 mi Calm Calm - N/A   Clear
9:55 AM 64.8 °F - 58.3 °F 79% 30.17 in 10.0 mi Calm Calm - N/A   Clear
10:15 AM 67.8 °F - 58.3 °F 71% 30.17 in 10.0 mi Calm Calm - N/A   Clear
10:35 AM 70.3 °F - 59.0 °F 67% 30.17 in 10.0 mi Calm Calm - N/A   Clear
10:55 AM 73.0 °F - 60.1 °F 64% 30.17 in 10.0 mi NW 3.5 mph - N/A   Clear
11:15 AM 74.5 °F - 60.3 °F 61% 30.17 in 10.0 mi Calm Calm - N/A   Clear
11:35 AM 76.6 °F - 60.3 °F 57% 30.16 in 10.0 mi Calm Calm - N/A   Clear
11:55 AM 77.5 °F - 60.6 °F 56% 30.16 in 10.0 mi Calm Calm - N/A   Clear
12:15 PM 78.8 °F - 58.5 °F 50% 30.15 in 10.0 mi NW 5.8 mph - N/A   Clear
12:35 PM 78.8 °F - 57.6 °F 48% 30.15 in 10.0 mi West 4.6 mph - N/A   Clear
12:55 PM 80.1 °F 80.7 °F 58.5 °F 48% 30.14 in 10.0 mi North 8.1 mph - N/A   Scattered Clouds
1:15 PM 80.4 °F 80.8 °F 58.1 °F 46% 30.13 in 10.0 mi North 4.6 mph - N/A   Mostly Cloudy
1:35 PM 77.5 °F - 57.7 °F 50% 30.12 in 10.0 mi North 8.1 mph - N/A   Mostly Cloudy
1:55 PM 77.4 °F - 59.2 °F 53% 30.11 in 10.0 mi NW 4.6 mph - N/A   Mostly Cloudy
2:15 PM 81.0 °F 80.9 °F 56.7 °F 43% 30.10 in 10.0 mi NW 4.6 mph - N/A   Scattered Clouds
2:35 PM 82.0 °F 81.5 °F 55.8 °F 40% 30.10 in 10.0 mi Calm Calm - N/A   Clear
2:55 PM 79.5 °F - 56.3 °F 45% 30.09 in 10.0 mi North 4.6 mph - N/A   Mostly Cloudy
3:15 PM 82.2 °F 81.6 °F 55.6 °F 40% 30.08 in 10.0 mi NNW 4.6 mph - N/A   Scattered Clouds
3:35 PM 82.2 °F 81.4 °F 54.5 °F 38% 30.08 in 10.0 mi Calm Calm - N/A   Mostly Cloudy
3:55 PM 82.0 °F 81.5 °F 55.2 °F 40% 30.08 in 10.0 mi West 3.5 mph - N/A   Scattered Clouds
4:15 PM 78.3 °F - 60.1 °F 53% 30.08 in 10.0 mi Calm Calm - N/A   Scattered Clouds
4:35 PM 78.4 °F - 56.5 °F 47% 30.08 in 10.0 mi Calm Calm - N/A   Mostly Cloudy
4:55 PM 76.8 °F - 63.7 °F 64% 30.08 in 10.0 mi Calm Calm - N/A   Overcast
5:15 PM 79.9 °F - 58.3 °F 48% 30.08 in 10.0 mi Calm Calm - N/A   Overcast
5:35 PM 80.1 °F 80.5 °F 57.7 °F 46% 30.08 in 10.0 mi Calm Calm - N/A   Scattered Clouds
5:55 PM 78.6 °F - 59.2 °F 51% 30.08 in 10.0 mi Calm Calm - N/A   Clear
6:15 PM 75.4 °F - 63.5 °F 66% 30.08 in 10.0 mi Calm Calm - N/A   Clear
6:35 PM 72.7 °F - 64.2 °F 75% 30.09 in 10.0 mi Calm Calm - N/A   Mostly Cloudy
6:55 PM 69.1 °F - 63.5 °F 82% 30.09 in 10.0 mi Calm Calm - N/A   Scattered Clouds
7:15 PM 66.7 °F - 63.0 °F 88% 30.09 in 10.0 mi Calm Calm - N/A   Clear
7:35 PM 64.9 °F - 62.2 °F 91% 30.10 in 10.0 mi Calm Calm - N/A   Clear
7:55 PM 63.5 °F - 61.2 °F 92% 30.10 in 10.0 mi Calm Calm - N/A   Clear
8:15 PM 62.8 °F - 61.0 °F 94% 30.11 in 10.0 mi Calm Calm - N/A   Clear
8:35 PM 62.6 °F - 60.6 °F 93% 30.11 in 10.0 mi Calm Calm - N/A   Clear
8:55 PM 62.1 °F - 60.8 °F 96% 30.11 in 7.0 mi Calm Calm - N/A   Clear
9:15 PM 60.8 °F - 59.9 °F 97% 30.12 in 5.0 mi Calm Calm - N/A   Clear
9:35 PM 60.4 °F - 59.5 °F 97% 30.12 in 5.0 mi Calm Calm - N/A   Clear
9:55 PM 59.4 °F - 58.3 °F 96% 30.13 in 3.0 mi Calm Calm - N/A   Clear
10:15 PM 59.0 °F - 57.9 °F 96% 30.13 in 5.0 mi Calm Calm - N/A   Clear
10:35 PM 58.1 °F - 57.2 °F 97% 30.13 in 5.0 mi Calm Calm - N/A   Clear
10:55 PM 58.3 °F - 57.6 °F 97% 30.13 in 0.8 mi Calm Calm - N/A   Mostly Cloudy
11:15 PM 57.0 °F - 56.1 °F 97% 30.13 in 4.0 mi Calm Calm - N/A   Scattered Clouds
11:35 PM 56.5 °F - 55.8 °F 97% 30.14 in 5.0 mi Calm Calm - N/A   Clear
11:55 PM 56.1 °F - 55.6 °F 98% 30.14 in 1.8 mi Calm Calm - N/A   Mist